Regional Weather Roundup
Issued by NWS

Home | Current Version | Previous Version | Text Only | Print | Product List | Glossary Off
Versions: 1 2 3 4 5 6 7 8 9 10 11 12 13 14 15 16 17 18 19 20 21 22 23 24 25 26 27 28 29 30 31 32 33 34 35 36 37 38 39 40 41 42 43 44 45 46 47 48 49 50

986
ASUS43 KFSD 221702
RWRSD

WEATHER ROUNDUP FOR SOUTH DAKOTA
NATIONAL WEATHER SERVICE SIOUX FALLS SD
1200 PM CDT FRI MAY 22 2015

NOTE: "FAIR" INDICATES FEW OR NO CLOUDS BELOW 12,000 FEET WITH NO
SIGNIFICANT WEATHER AND/OR OBSTRUCTIONS TO VISIBILITY.


SDZ001>005-009-010-012>017-221800-
NORTHWEST AND NORTH CENTRAL SOUTH DAKOTA

CITY           SKY/WX    TMP DP  RH WIND       PRES   REMARKS
BUFFALO          N/A     62  41  46 SE15      30.02S
MOBRIDGE       SUNNY     73  36  25 S14       30.14S
$$

SDZ012>016-024>037-041>051-057-063-072>074-221800-
SOUTHWEST AND SOUTH CENTRAL SOUTH DAKOTA

CITY           SKY/WX    TMP DP  RH WIND       PRES   REMARKS
RAPID CTY ARPT CLOUDY    58  45  62 S15       30.10S
PIERRE         MOSUNNY   69  39  33 SE16G25   30.14F
CUSTER         CLOUDY    46  39  76 SE13G21   30.11S
ELLSWORTH AFB  CLOUDY    59  45  61 S17       30.09S
PHILIP         PTSUNNY   66  40  38 SE23      30.11F
PINE RIDGE     CLOUDY    57  38  48 SE20G25   30.11S
WINNER         FAIR      67  35  30 SE16G28   30.16F
$$

SDZ004>011-016>023-039-040-221800-
NORTHEAST SOUTH DAKOTA

CITY           SKY/WX    TMP DP  RH WIND       PRES   REMARKS
ABERDEEN       SUNNY     73  38  27 E7        30.18R
WATERTOWN      SUNNY     70  35  27 VRB3      30.20R
BROOKINGS      SUNNY     70  36  28 E9        30.21S
$$

SDZ017-020-022-023-036>040-048>070-221800-
SOUTHEAST SOUTH DAKOTA

CITY           SKY/WX    TMP DP  RH WIND       PRES   REMARKS
SIOUX FALLS    PTSUNNY   71  39  31 NW3       30.20F
HURON          SUNNY     71  37  28 SE5       30.18F
CHAMBERLAIN    MOSUNNY   68  40  35 SE13G22   30.17F
MITCHELL       SUNNY     72  40  31 VRB6      30.19F
YANKTON        MOSUNNY   70  39  32 SE6       30.20S
$$

ABBREVIATIONS USED IN REMARKS
   TC - TEMPERATURE IN CELSIUS
  WCI - WIND CHILL INDEX
   HX - HEAT INDEX
  VSB - VISIBILITY




USA.gov is the U.S. government's official web portal to all federal, state and local government web resources and services.